EW0538 Weather Reports


time (UTC)temp
C
wind
direction
speed
KPH
gust
KPH
rain 1hr
cm
rain 24hr
cm
rain mn
cm
humidity
%
barometer
mb
20260904053102 12 13 0.0 0.0 0.00 0.00 0.00 71 1008.4
20260904052127 12 143 0.0 0.0 0.00 0.00 0.00 68 1008.3
20260904051134 12 143 0.0 0.0 0.00 0.00 0.00 69 1008.1
20260904050155 12 44 0.0 0.0 0.00 0.00 0.00 66 1008.1
20260904045121 13 44 0.0 0.0 0.00 0.00 0.00 62 1008.0
20260904044128 13 50 0.0 0.0 0.00 0.00 0.00 61 1007.9
20260904043119 13 157 0.0 0.0 0.00 0.00 0.00 57 1008.0
20260904042109 14 157 0.0 1.6 0.00 0.00 0.00 61 1008.0
20260904041110 15 156 0.0 0.0 0.00 0.00 0.00 53 1007.9
20260904040039 14 87 0.0 0.0 0.00 0.00 0.00 58 1007.9
20260904035049 15 50 0.0 0.0 0.00 0.00 0.00 57 1007.9
20260904034109 15 115 0.0 0.0 0.00 0.00 0.00 56 1007.8
20260904033122 15 115 0.0 0.0 0.00 0.00 0.00 55 1007.6
20260904032057 15 153 0.0 0.0 0.00 0.00 0.00 55 1007.5
20260904031059 16 153 0.0 1.6 0.00 0.00 0.00 53 1007.5
20260904030117 17 158 0.0 0.0 0.00 0.00 0.00 52 1007.3
20260904025122 17 162 0.0 0.0 0.00 0.00 0.00 50 1007.2
20260904024128 18 163 0.0 0.0 0.00 0.00 0.00 46 1007.1
20260904023109 20 172 0.0 0.0 0.00 0.00 0.00 40 1006.9
20260904022121 21 243 0.0 0.0 0.00 0.00 0.00 34 1006.7
20260904021110 22 115 0.0 0.0 0.00 0.00 0.00 30 1006.4
20260904020110 23 309 0.0 0.0 0.00 0.00 0.00 29 1006.3
20260904014019 23 143 0.0 4.8 0.00 0.00 0.00 26 1006.0
20260904011840 25 240 0.0 4.8 0.00 0.00 0.00 26 1005.9
20260904010811 27 144 0.0 1.6 0.00 0.00 0.00 23 1005.9
20260904004643 27 227 1.6 17.7 0.00 0.00 0.00 21 1006.0
20260904003655 27 312 1.6 0.0 0.00 0.00 0.00 22 1006.0
20260904002637 28 112 1.6 14.5 0.00 0.00 0.00 21 1006.0
20260904001608 28 221 4.8 17.7 0.00 0.00 0.00 20 1006.1
20260903235427 28 135 3.2 17.7 0.00 0.00 0.00 20 1006.2
20260903234413 28 219 3.2 17.7 0.00 0.00 0.00 18 1006.4
20260903232306 28 271 1.6 0.0 0.00 0.00 0.00 19 1006.4
20260903231237 28 167 0.0 12.9 0.00 0.00 0.00 18 1006.4
20260903225046 28 119 1.6 16.1 0.00 0.00 0.00 20 1006.7
20260903224013 28 231 6.4 22.5 0.00 0.00 0.00 18 1006.9
20260903223020 28 127 8.0 24.1 0.00 0.00 0.00 17 1006.9
20260903222014 28 193 4.8 24.1 0.00 0.00 0.00 17 1007.1
20260903221036 28 103 1.6 20.9 0.00 0.00 0.00 19 1007.0
20260903220023 28 259 3.2 20.9 0.00 0.00 0.00 17 1007.1
20260903215031 28 129 4.8 17.7 0.00 0.00 0.00 20 1007.3
20260903214003 28 153 6.4 24.1 0.00 0.00 0.00 19 1007.5
20260903213012 28 256 6.4 29.0 0.00 0.00 0.00 19 1007.6
20260903211955 27 226 9.7 29.0 0.00 0.00 0.00 18 1007.8
20260903210923 28 155 8.0 27.4 0.00 0.00 0.00 19 1007.9
20260903205926 28 134 4.8 20.9 0.00 0.00 0.00 19 1007.9
20260903204855 27 188 4.8 30.6 0.00 0.00 0.00 19 1008.2
20260903202736 27 124 6.4 20.9 0.00 0.00 0.00 19 1008.3
20260903201719 27 126 4.8 24.1 0.00 0.00 0.00 22 1008.4
20260903200714 26 238 6.4 24.1 0.00 0.00 0.00 22 1008.6
20260903194627 26 160 6.4 20.9 0.00 0.00 0.00 24 1008.8
20260903193608 26 136 6.4 24.1 0.00 0.00 0.00 24 1008.9
20260903191505 26 229 6.4 27.4 0.00 0.00 0.00 26 1009.2
20260903190502 26 247 4.8 27.4 0.00 0.00 0.00 24 1009.5
20260903185459 26 166 3.2 20.9 0.00 0.00 0.00 28 1009.4
20260903184437 26 245 4.8 22.5 0.00 0.00 0.00 24 1009.7
20260903183426 25 223 4.8 29.0 0.00 0.00 0.00 26 1009.8
20260903182409 25 240 6.4 29.0 0.00 0.00 0.00 27 1009.9
20260903181340 25 212 6.4 29.0 0.00 0.00 0.00 29 1010.1
20260903175225 25 103 8.0 27.4 0.00 0.00 0.00 30 1010.4
20260903174203 24 153 6.4 20.9 0.00 0.00 0.00 30 1010.5
20260903173226 24 226 9.7 22.5 0.00 0.00 0.00 30 1010.7
20260903172156 24 116 8.0 35.4 0.00 0.00 0.00 30 1010.7
20260903171127 23 227 11.3 35.4 0.00 0.00 0.00 30 1010.6
20260903170141 23 224 9.7 27.4 0.00 0.00 0.00 31 1010.5
20260903165206 23 148 8.0 24.1 0.00 0.00 0.00 33 1010.6
20260903164144 23 203 0.0 8.0 0.00 0.00 0.00 44 1010.5
20260903163112 22 350 0.0 3.2 0.00 0.00 0.00 53 1010.6
20260903160946 19 8 0.0 3.2 0.00 0.00 0.00 58 1011.1
20260903160003 18 314 0.0 4.8 0.00 0.00 0.00 61 1011.1
20260903154956 17 0 0.0 4.8 0.00 0.00 0.00 63 1011.3
20260903153943 17 11 0.0 1.6 0.00 0.00 0.00 66 1011.5
20260903152934 16 243 0.0 1.6 0.00 0.00 0.00 67 1011.6
20260903150741 15 339 0.0 0.0 0.00 0.00 0.00 73 1011.8
20260903145746 14 291 0.0 0.0 0.00 0.00 0.00 76 1012.0
20260903144730 14 16 0.0 0.0 0.00 0.00 0.00 75 1012.0
20260903143741 12 77 0.0 0.0 0.00 0.00 0.00 81 1012.2
20260903141626 11 136 0.0 0.0 0.00 0.00 0.00 95 1012.3
20260903140614 10 136 0.0 0.0 0.00 0.00 0.00 97 1012.3
20260903135617 8 137 0.0 0.0 0.00 0.00 0.00 97 1012.4
20260903134616 7 137 0.0 0.0 0.00 0.00 0.00 97 1012.5
20260903132529 7 137 0.0 0.0 0.00 0.00 0.00 97 1012.2
20260903131455 7 136 0.0 0.0 0.00 0.00 0.00 97 1012.1
20260903130432 7 139 0.0 0.0 0.00 0.00 0.00 97 1012.0
20260903125432 7 161 0.0 0.0 0.00 0.00 0.00 97 1011.7
20260903123321 7 18 0.0 0.0 0.00 0.00 0.00 96 1011.5
20260903120124 7 132 0.0 0.0 0.00 0.00 0.00 96 1011.1
20260903112837 7 122 0.0 0.0 0.00 0.00 0.00 96 1010.9
20260903111850 7 121 0.0 0.0 0.00 0.00 0.00 96 1010.9
20260903105651 8 148 0.0 0.0 0.00 0.00 0.00 96 1010.8
20260903104659 8 148 0.0 0.0 0.00 0.00 0.00 96 1010.8
20260903103631 8 67 0.0 0.0 0.00 0.00 0.00 96 1010.9
20260903102556 8 67 0.0 0.0 0.00 0.00 0.00 95 1011.0
20260903101547 8 67 0.0 0.0 0.00 0.00 0.00 95 1011.0
20260903100559 8 66 0.0 0.0 0.00 0.00 0.00 95 1011.1
20260903094505 8 66 0.0 0.0 0.00 0.00 0.00 95 1011.0
20260903091209 9 36 0.0 0.0 0.00 0.00 0.00 94 1010.9
20260903090210 9 36 0.0 0.0 0.00 0.03 0.00 94 1010.9
20260903085135 10 36 0.0 0.0 0.00 0.03 0.00 94 1011.1
20260903084119 10 335 0.0 0.0 0.00 0.03 0.00 93 1011.0
20260903083058 10 335 0.0 0.0 0.00 0.03 0.00 93 1010.9
20260903082117 10 335 0.0 0.0 0.00 0.03 0.00 93 1010.9
20260903081117 10 336 0.0 0.0 0.00 0.03 0.00 93 1010.8
20260903080131 10 336 0.0 0.0 0.00 0.03 0.00 92 1010.8
20260903075103 11 335 0.0 0.0 0.00 0.03 0.00 92 1010.8
20260903074112 11 335 0.0 0.0 0.00 0.03 0.00 91 1011.0
20260903073113 11 335 0.0 0.0 0.00 0.03 0.00 91 1010.9
20260903071025 11 152 0.0 0.0 0.00 0.03 0.00 90 1010.7
20260903070047 11 335 0.0 11.3 0.00 0.03 0.00 91 1010.7
20260903065049 11 125 0.0 0.0 0.00 0.03 0.00 90 1011.5
20260903062954 12 164 0.0 0.0 0.00 0.03 0.00 89 1010.8
20260903061920 11 142 0.0 6.4 0.00 0.03 0.00 90 1011.1
20260903060907 11 137 0.0 1.6 0.00 0.03 0.00 90 1011.1
20260903055842 11 160 0.0 0.0 0.00 0.03 0.03 91 1011.3